Home   Weather   Bruchsal   Past weeks

Flag for Germany Past Weather in Bruchsal, Baden-Württemberg, Germany — Yesterday and Last 2 Weeks

Now
48 °F

Passing clouds.


Feels Like: 47 °F
Forecast: 40 / 51 °F
Wind: 3 mph from North

Location: Mannheim City

Current Time: Apr 26, 2017 at 11:48:56 pm

Latest Report: Apr 26, 2017 at 8:50 pm


Visibility: N/A

Pressure: 29.89 "Hg

Humidity: 58%

Dew Point: 34 °F

Location of BruchsalLocation

Past Weather in Bruchsal — Graph

°F

Bruchsal Temperature Yesterday

Maximum temperature yesterday: 54 °F (at 9:50 am)
Minimum temperature yesterday: 46 °F (at 5:50 am)
Average temperature yesterday: 49 °F

High & Low Weather Summary for the Past Weeks

 TemperatureHumidityPressure
High63 °F (Apr 24, 6:50 pm)100% (Apr 24, 5:20 am)30.60 "Hg (Apr 24, 5:20 am)
Low28 °F (Apr 20, 5:50 am)28% (Apr 21, 12:50 pm)29.71 "Hg (Apr 25, 5:50 am)
Average49 °F51%30.19 "Hg
* Reported Apr 19 9:20 am — Apr 26 8:50 pm, Bruchsal, Weather by CustomWeather, © 2017

Note: Actual official high and low records may vary slightly from our data, if they occured in-between our weather recording intervals... More about our weather records

Advertising

Bruchsal Weather History for the Previous 24 Hours

Scroll right to see more
 ConditionsComfort  
Time TempWeatherWind HumidityBarometerVisibility
8:50 pm
Wed, Apr 26
48 °FPassing clouds.3 mph58%29.89 "HgN/A
8:20 pm48 °FSunny.3 mph54%29.89 "Hg10 mi
7:50 pm48 °FPassing clouds.5 mph54%29.89 "HgN/A
7:20 pm50 °FSunny.6 mph50%29.89 "Hg10 mi
6:50 pm50 °FPassing clouds.5 mph47%29.89 "HgN/A
6:20 pm50 °FPassing clouds.6 mph47%29.89 "HgN/A
5:50 pm50 °FPassing clouds.6 mph47%29.89 "HgN/A
5:20 pm50 °FScattered showers. Broken clouds.8 mph43%29.89 "HgN/A
4:50 pm50 °FScattered showers. Passing clouds.6 mph43%29.89 "HgN/A
4:20 pm50 °FScattered showers. Partly sunny.7 mph43%29.89 "HgN/A
3:50 pm50 °FScattered showers. Scattered clouds.5 mph43%29.86 "HgN/A
3:20 pm50 °FScattered showers. Overcast.5 mph40%29.86 "HgN/A
2:50 pm52 °FPartly sunny.6 mph38%29.86 "HgN/A
2:20 pm52 °FPartly sunny.7 mph44%29.86 "HgN/A
1:50 pm52 °FScattered clouds.5 mph44%29.86 "HgN/A
1:20 pm50 °FScattered clouds.8 mph43%29.86 "HgN/A
12:50 pm50 °FScattered clouds.6 mph47%29.86 "HgN/A
12:20 pm48 °FBroken clouds.9 mph54%29.86 "HgN/A
11:50 am48 °FBroken clouds.5 mph50%29.86 "HgN/A
11:20 am48 °FScattered clouds.6 mph50%29.86 "HgN/A
10:50 am46 °FScattered clouds.7 mph57%29.86 "HgN/A
10:20 am46 °FPartly sunny.6 mph57%29.86 "HgN/A
9:50 am46 °FPartly sunny.6 mph53%29.86 "HgN/A
9:20 am45 °FOvercast.6 mph57%29.86 "HgN/A
8:50 am45 °FPassing clouds.7 mph57%29.86 "HgN/A
8:20 am43 °FPartly sunny.7 mph66%29.86 "HgN/A
7:50 am43 °FBroken clouds.6 mph66%29.86 "HgN/A
7:20 am43 °FMostly cloudy.7 mph66%29.83 "HgN/A
6:50 am43 °FMostly cloudy.3 mph66%29.83 "HgN/A
6:20 am43 °FBroken clouds.No wind76%29.83 "HgN/A
5:20 am43 °FPartly cloudy.3 mph76%29.83 "HgN/A
Weather by CustomWeather, © 2017

See weather overviewHow to use our weather pages